sat.trackr.live / text

‹ back to catalog

QIANFAN-113

NORAD 68640 · 2026-075E

PAYLOAD ACTIVE UNKNOWN

§ Identity

Operator
Country
PRC
Launch date
2026-04-07
Launch site
WSC
Launch vehicle
Mass (kg)
RCS (m²)

External: N2YO · Heavens-Above · Gunter

§ Orbital elements

Epoch: 2026-05-24T18:42:06.482016Z

Period
105.58 min
Inclination
88.9869°
Eccentricity
0.0011434
Mean motion
13.63894363 rev/d
Perigee alt
1,013.1 km
Apogee alt
1,030.0 km
Semi-major
7,399.7 km
B*
-2.7838e+0
RAAN
323.4172°
Arg perigee
75.0559°
Mean anomaly
285.1865°
Rev number
663

§ Raw data

QIANFAN-1131 68640U 26075E   26144.77924169 -.02066049  00000+0 -27838+1 0  99922 68640  88.9869 323.4172 0011434  75.0559 285.1865 13.63894363  6636

JSON: /api/v1/satellites/68640 · /tle

For live sub-satellite position, see the globe view (requires WebGL).

§ Visibility from observer

Set your observer location to see the next 7 days of passes ≥ 10°. The values pass through the URL so the page stays shareable.

No JS? Fill the form by hand. The geolocation button needs JavaScript.